TimeCST,TemperatureF,Dew PointF,Humidity,Sea Level PressureIn,VisibilityMPH,Wind Direction,Wind SpeedMPH,Gust SpeedMPH,PrecipitationIn,Events,Conditions,WindDirDegrees,DateUTC
12:15 AM,39.2,37.4,93,30.28,3.0,Calm,Calm,-,N/A,,Overcast,0,2012-12-01 06:15:00
12:35 AM,41.0,37.4,87,30.28,5.0,Calm,Calm,-,N/A,,Mostly Cloudy,0,2012-12-01 06:35:00
12:55 AM,41.0,39.2,93,30.28,9.0,Calm,Calm,-,N/A,,Mostly Cloudy,0,2012-12-01 06:55:00
1:15 AM,39.2,37.4,93,30.28,10.0,Calm,Calm,-,N/A,,Mostly Cloudy,0,2012-12-01 07:15:00
1:35 AM,39.2,37.4,93,30.29,10.0,Calm,Calm,-,N/A,,Mostly Cloudy,0,2012-12-01 07:35:00
1:55 AM,39.2,37.4,93,30.29,8.0,Calm,Calm,-,N/A,,Mostly Cloudy,0,2012-12-01 07:55:00
2:15 AM,39.2,37.4,93,30.29,8.0,Calm,Calm,-,N/A,,Mostly Cloudy,0,2012-12-01 08:15:00
3:15 AM,39.2,37.4,93,30.29,8.0,Calm,Calm,-,N/A,,Mostly Cloudy,0,2012-12-01 09:15:00
3:35 AM,39.2,37.4,93,30.29,8.0,Calm,Calm,-,N/A,,Mostly Cloudy,0,2012-12-01 09:35:00
3:55 AM,39.2,37.4,93,30.29,10.0,Calm,Calm,-,N/A,,Mostly Cloudy,0,2012-12-01 09:55:00
4:15 AM,39.2,35.6,87,30.29,10.0,Calm,Calm,-,N/A,,Scattered Clouds,0,2012-12-01 10:15:00
4:35 AM,39.2,35.6,87,30.30,10.0,Calm,Calm,-,N/A,,Partly Cloudy,0,2012-12-01 10:35:00
4:55 AM,39.2,37.4,93,30.30,8.0,Calm,Calm,-,N/A,,Scattered Clouds,0,2012-12-01 10:55:00
5:15 AM,39.2,35.6,87,30.31,5.0,Calm,Calm,-,N/A,,Scattered Clouds,0,2012-12-01 11:15:00
6:16 AM,37.4,35.6,93,30.32,4.0,Calm,Calm,-,N/A,,Scattered Clouds,0,2012-12-01 12:16:00
6:35 AM,37.4,33.8,87,30.32,5.0,Calm,Calm,-,N/A,,Partly Cloudy,0,2012-12-01 12:35:00
6:55 AM,37.4,33.8,87,30.33,6.0,Calm,Calm,-,N/A,,Clear,0,2012-12-01 12:55:00
7:15 AM,39.2,35.6,87,30.33,6.0,Calm,Calm,-,N/A,,Partly Cloudy,0,2012-12-01 13:15:00
7:35 AM,39.2,37.4,93,30.34,5.0,Calm,Calm,-,N/A,,Scattered Clouds,0,2012-12-01 13:35:00
8:15 AM,44.6,42.8,93,30.35,5.0,Calm,Calm,-,N/A,,Partly Cloudy,0,2012-12-01 14:15:00
8:35 AM,46.4,44.6,93,30.35,7.0,East,3.5,-,N/A,,Partly Cloudy,80,2012-12-01 14:35:00
8:55 AM,50.0,44.6,82,30.36,9.0,East,4.6,-,N/A,,Scattered Clouds,80,2012-12-01 14:55:00
9:15 AM,53.6,46.4,77,30.36,10.0,East,3.5,-,N/A,,Mostly Cloudy,80,2012-12-01 15:15:00
9:35 AM,55.4,46.4,72,30.36,10.0,Calm,Calm,-,N/A,,Scattered Clouds,0,2012-12-01 15:35:00
9:55 AM,57.2,46.4,67,30.35,10.0,Calm,Calm,-,N/A,,Mostly Cloudy,0,2012-12-01 15:55:00
10:15 AM,59.0,46.4,63,30.35,10.0,Calm,Calm,-,N/A,,Mostly Cloudy,0,2012-12-01 16:15:00
10:35 AM,60.8,46.4,59,30.34,10.0,NE,3.5,-,N/A,,Scattered Clouds,40,2012-12-01 16:35:00
11:15 AM,64.4,48.2,56,30.32,10.0,Calm,Calm,-,N/A,,Clear,0,2012-12-01 17:15:00
11:35 AM,66.2,48.2,52,30.31,10.0,SE,4.6,-,N/A,,Scattered Clouds,130,2012-12-01 17:35:00
11:55 AM,66.2,48.2,52,30.30,10.0,Calm,Calm,-,N/A,,Partly Cloudy,0,2012-12-01 17:55:00
12:15 PM,66.2,46.4,49,30.29,10.0,SE,8.1,-,N/A,,Clear,130,2012-12-01 18:15:00
12:35 PM,66.2,48.2,52,30.29,10.0,SE,8.1,-,N/A,,Clear,140,2012-12-01 18:35:00
12:55 PM,69.8,46.4,43,30.28,10.0,South,8.1,-,N/A,,Partly Cloudy,180,2012-12-01 18:55:00
1:15 PM,66.2,46.4,49,30.27,10.0,South,5.8,-,N/A,,Partly Cloudy,180,2012-12-01 19:15:00
1:35 PM,69.8,46.4,43,30.27,10.0,SE,6.9,-,N/A,,Partly Cloudy,140,2012-12-01 19:35:00
1:55 PM,69.8,44.6,40,30.27,10.0,South,4.6,-,N/A,,Clear,170,2012-12-01 19:55:00
2:15 PM,69.8,44.6,40,30.26,10.0,SE,5.8,-,N/A,,Clear,140,2012-12-01 20:15:00
2:35 PM,69.8,46.4,43,30.26,10.0,ESE,5.8,-,N/A,,Scattered Clouds,120,2012-12-01 20:35:00
2:55 PM,69.8,46.4,43,30.25,10.0,SSE,5.8,-,N/A,,Mostly Cloudy,150,2012-12-01 20:55:00
3:15 PM,69.8,44.6,40,30.25,10.0,South,4.6,-,N/A,,Scattered Clouds,180,2012-12-01 21:15:00
3:35 PM,68.0,44.6,43,30.26,10.0,SSW,4.6,-,N/A,,Clear,210,2012-12-01 21:35:00
3:55 PM,66.2,44.6,46,30.25,10.0,Calm,Calm,-,N/A,,Clear,0,2012-12-01 21:55:00
4:15 PM,64.4,44.6,49,30.25,10.0,South,3.5,-,N/A,,Clear,170,2012-12-01 22:15:00
4:35 PM,60.8,44.6,55,30.25,10.0,Calm,Calm,-,N/A,,Clear,0,2012-12-01 22:35:00
4:55 PM,57.2,44.6,63,30.25,10.0,Calm,Calm,-,N/A,,Clear,0,2012-12-01 22:55:00
5:15 PM,55.4,44.6,67,30.25,10.0,Calm,Calm,-,N/A,,Clear,0,2012-12-01 23:15:00
5:55 PM,53.6,42.8,67,30.26,10.0,Calm,Calm,-,N/A,,Clear,0,2012-12-01 23:55:00
6:15 PM,51.8,44.6,76,30.26,10.0,Calm,Calm,-,N/A,,Clear,0,2012-12-02 00:15:00
6:35 PM,48.2,42.8,82,30.26,10.0,Calm,Calm,-,N/A,,Clear,0,2012-12-02 00:35:00
6:55 PM,48.2,42.8,82,30.26,10.0,Calm,Calm,-,N/A,,Clear,0,2012-12-02 00:55:00
7:15 PM,48.2,42.8,82,30.27,10.0,Calm,Calm,-,N/A,,Clear,0,2012-12-02 01:15:00
7:35 PM,48.2,41.0,76,30.27,10.0,Calm,Calm,-,N/A,,Clear,0,2012-12-02 01:35:00
7:55 PM,46.4,42.8,87,30.27,10.0,Calm,Calm,-,N/A,,Clear,0,2012-12-02 01:55:00
8:15 PM,46.4,42.8,87,30.27,10.0,Calm,Calm,-,N/A,,Clear,0,2012-12-02 02:15:00
8:35 PM,46.4,41.0,81,30.27,10.0,Calm,Calm,-,N/A,,Clear,0,2012-12-02 02:35:00
8:55 PM,44.6,41.0,87,30.28,10.0,Calm,Calm,-,N/A,,Clear,0,2012-12-02 02:55:00
9:15 PM,44.6,39.2,81,30.28,10.0,Calm,Calm,-,N/A,,Clear,0,2012-12-02 03:15:00
9:35 PM,44.6,41.0,87,30.28,10.0,Calm,Calm,-,N/A,,Clear,0,2012-12-02 03:35:00
9:55 PM,42.8,37.4,81,30.27,10.0,Calm,Calm,-,N/A,,Clear,0,2012-12-02 03:55:00
10:15 PM,42.8,39.2,87,30.28,10.0,Calm,Calm,-,N/A,,Clear,0,2012-12-02 04:15:00
10:35 PM,44.6,39.2,81,30.28,10.0,Calm,Calm,-,N/A,,Clear,0,2012-12-02 04:35:00
10:55 PM,42.8,39.2,87,30.29,10.0,Calm,Calm,-,N/A,,Clear,0,2012-12-02 04:55:00
11:15 PM,42.8,37.4,81,30.29,10.0,Calm,Calm,-,N/A,,Clear,0,2012-12-02 05:15:00
11:35 PM,42.8,37.4,81,30.29,10.0,Calm,Calm,-,N/A,,Clear,0,2012-12-02 05:35:00
11:55 PM,42.8,39.2,87,30.30,10.0,Calm,Calm,-,N/A,,Clear,0,2012-12-02 05:55:00